Location: Ariel
(45.9570°N, 122.5700°W)
Time: 22:21:19
(UTC-07:00)

Tiangong 2 - Visible Passes

Search period start: 19 June 2019 00:00
Search period end: 29 June 2019 00:00
Orbit: 376 x 389 km, 42.8° (Epoch: 19 June)

Date Brightness Start Highest point End Pass type
(mag) Time Alt. Az. Time Alt. Az. Time Alt. Az.
26 Jun 3.5 03:54:48 10° SSE 03:55:39 11° SSE 03:56:30 10° SE visible
27 Jun 2.6 04:29:08 10° SW 04:31:40 24° SSE 04:34:17 10° ESE visible
28 Jun 3.0 03:31:26 16° SSE 03:31:38 16° SSE 03:33:42 10° ESE visible
